When you browse on this site, cookies collect data to enhance your experience and personalize the content and advertising you see.
Visit our Privacy Policy to learn more. By continuing to use the site, you agree to this use of cookies and data.
  • en Suisse
  • Liste des pays
  • À 7 jours
  • Température de l'eau
  • Carte météo
  • Widgets météo
  • user-avatar
    Se connecter

    Météo par heure à Santa Fe

    Ce jour, 19 Février, Mercredi

    Heure Température Précipitation Vent Pression Humidité
    00:00 +20°C° 0 mm 1 m/s 757 mmHg 37%
    01:00 +19°C° 0 mm 1 m/s 757 mmHg 38%
    02:00 +16°C° 0 mm 0 m/s 758 mmHg 38%
    03:00 +16°C° 0 mm 0 m/s 757 mmHg 37%
    04:00 +16°C° 0 mm 0 m/s 757 mmHg 37%
    05:00 +15°C° 0 mm 0 m/s 757 mmHg 37%
    06:00 +20°C° 0 mm 1 m/s 757 mmHg 34%
    07:00 +22°C° 0 mm 1 m/s 757 mmHg 32%
    08:00 +24°C° 0 mm 1 m/s 757 mmHg 29%
    09:00 +26°C° 0 mm 1 m/s 757 mmHg 26%
    10:00 +29°C° 0 mm 1 m/s 757 mmHg 24%
    11:00 +31°C° 0 mm 1 m/s 757 mmHg 21%
    12:00 +32°C° 0 mm 1 m/s 756 mmHg 20%
    13:00 +33°C° 0 mm 1 m/s 755 mmHg 18%
    14:00 +34°C° 0 mm 1 m/s 755 mmHg 17%
    15:00 +34°C° 0 mm 1 m/s 754 mmHg 17%
    16:00 +34°C° 0 mm 1 m/s 754 mmHg 18%
    17:00 +34°C° 0 mm 1 m/s 753 mmHg 18%
    18:00 +31°C° 0 mm 1 m/s 754 mmHg 21%
    19:00 +29°C° 0 mm 1 m/s 754 mmHg 25%
    20:00 +26°C° 0 mm 1 m/s 755 mmHg 28%
    21:00 +26°C° 0 mm 1 m/s 755 mmHg 31%
    22:00 +25°C° 0 mm 1 m/s 755 mmHg 34%
    23:00 +22°C° 0 mm 0 m/s 756 mmHg 36%

    Demain, 20 Février, Jeudi

    Heure Température Précipitation Vent Pression Humidité
    00:00 +24°C° 0 mm 1 m/s 756 mmHg 38%
    01:00 +23°C° 0 mm 1 m/s 756 mmHg 39%
    02:00 +23°C° 0 mm 1 m/s 756 mmHg 41%
    03:00 +21°C° 0 mm 2 m/s 757 mmHg 41%
    04:00 +20°C° 0 mm 3 m/s 757 mmHg 42%
    05:00 +20°C° 0 mm 4 m/s 758 mmHg 42%
    06:00 +21°C° 0 mm 5 m/s 759 mmHg 44%
    07:00 +21°C° 0 mm 6 m/s 760 mmHg 46%
    08:00 +22°C° 0 mm 7 m/s 761 mmHg 47%
    09:00 +24°C° 0 mm 7 m/s 761 mmHg 38%
    10:00 +27°C° 0 mm 7 m/s 761 mmHg 30%
    11:00 +29°C° 0 mm 7 m/s 761 mmHg 21%
    12:00 +30°C° 0 mm 7 m/s 761 mmHg 19%
    13:00 +32°C° 0 mm 6 m/s 761 mmHg 17%
    14:00 +33°C° 0 mm 6 m/s 760 mmHg 16%
    15:00 +32°C° 0 mm 6 m/s 760 mmHg 16%
    16:00 +32°C° 0 mm 6 m/s 760 mmHg 16%
    17:00 +30°C° 0 mm 6 m/s 760 mmHg 17%
    18:00 +28°C° 0 mm 5 m/s 760 mmHg 20%
    19:00 +25°C° 0 mm 4 m/s 761 mmHg 24%
    20:00 +22°C° 0 mm 3 m/s 761 mmHg 28%
    21:00 +21°C° 0 mm 3 m/s 762 mmHg 31%
    22:00 +20°C° 0 mm 2 m/s 762 mmHg 33%
    23:00 +19°C° 0 mm 2 m/s 763 mmHg 36%

    Après-demain, 21 Février, Vendredi

    Heure Température Précipitation Vent Pression Humidité
    00:00 +19°C° 0 mm 2 m/s 763 mmHg 37%
    01:00 +18°C° 0 mm 2 m/s 763 mmHg 38%
    02:00 +19°C° 0 mm 1 m/s 764 mmHg 39%
    09:00 +22°C° 0 mm 4 m/s 765 mmHg 34%
    10:00 +25°C° 0 mm 4 m/s 765 mmHg 28%
    11:00 +27°C° 0 mm 4 m/s 765 mmHg 23%
    12:00 +28°C° 0 mm 5 m/s 765 mmHg 21%
    13:00 +29°C° 0 mm 6 m/s 764 mmHg 19%
    14:00 +30°C° 0 mm 6 m/s 764 mmHg 17%
    15:00 +29°C° 0 mm 6 m/s 763 mmHg 19%
    16:00 +29°C° 0 mm 6 m/s 763 mmHg 20%
    17:00 +28°C° 0 mm 6 m/s 762 mmHg 21%
    18:00 +26°C° 0 mm 5 m/s 763 mmHg 26%
    19:00 +23°C° 0 mm 4 m/s 763 mmHg 31%
    20:00 +21°C° 0 mm 3 m/s 763 mmHg 36%
    21:00 +20°C° 0 mm 3 m/s 764 mmHg 38%
    22:00 +19°C° 0 mm 2 m/s 764 mmHg 41%
    23:00 +18°C° 0 mm 2 m/s 764 mmHg 43%

    22 Février, Samedi

    Heure Température Précipitation Vent Pression Humidité
    00:00 +18°C° 0 mm 2 m/s 764 mmHg 46%
    01:00 +17°C° 0 mm 2 m/s 764 mmHg 48%
    02:00 +16°C° 0 mm 2 m/s 765 mmHg 51%
    03:00 +15°C° 0 mm 2 m/s 765 mmHg 53%
    04:00 +15°C° 0 mm 2 m/s 765 mmHg 55%
    05:00 +14°C° 0 mm 2 m/s 765 mmHg 57%
    06:00 +16°C° 0 mm 2 m/s 766 mmHg 54%
    07:00 +18°C° 0 mm 2 m/s 766 mmHg 50%
    08:00 +19°C° 0 mm 3 m/s 766 mmHg 46%
    09:00 +21°C° 0 mm 3 m/s 766 mmHg 40%
    10:00 +24°C° 0 mm 3 m/s 766 mmHg 34%
    11:00 +26°C° 0 mm 2 m/s 765 mmHg 29%
    12:00 +28°C° 0 mm 3 m/s 765 mmHg 26%
    13:00 +29°C° 0 mm 3 m/s 764 mmHg 22%
    14:00 +30°C° 0 mm 3 m/s 763 mmHg 19%
    15:00 +30°C° 0 mm 3 m/s 762 mmHg 19%
    16:00 +30°C° 0 mm 3 m/s 761 mmHg 18%
    17:00 +30°C° 0 mm 3 m/s 761 mmHg 18%
    18:00 +28°C° 0 mm 3 m/s 761 mmHg 21%
    19:00 +25°C° 0 mm 3 m/s 761 mmHg 24%
    20:00 +22°C° 0 mm 3 m/s 761 mmHg 27%
    21:00 +21°C° 0 mm 4 m/s 761 mmHg 31%
    22:00 +20°C° 0 mm 4 m/s 762 mmHg 36%
    23:00 +19°C° 0 mm 4 m/s 762 mmHg 41%

    23 Février, Dimanche

    Heure Température Précipitation Vent Pression Humidité
    00:00 +18°C° 0 mm 3 m/s 762 mmHg 44%
    01:00 +17°C° 0 mm 3 m/s 761 mmHg 47%
    02:00 +16°C° 0 mm 3 m/s 761 mmHg 51%
    03:00 +16°C° 0 mm 2 m/s 761 mmHg 55%
    04:00 +15°C° 0 mm 2 m/s 761 mmHg 60%
    05:00 +15°C° 0 mm 1 m/s 761 mmHg 65%
    06:00 +17°C° 0 mm 2 m/s 761 mmHg 59%
    07:00 +19°C° 0 mm 2 m/s 761 mmHg 53%
    08:00 +21°C° 0 mm 2 m/s 761 mmHg 47%
    09:00 +24°C° 0 mm 3 m/s 761 mmHg 40%
    10:00 +26°C° 0 mm 3 m/s 760 mmHg 34%
    11:00 +29°C° 0 mm 3 m/s 760 mmHg 27%
    12:00 +30°C° 0 mm 3 m/s 759 mmHg 25%
    13:00 +31°C° 0 mm 3 m/s 758 mmHg 22%
    14:00 +33°C° 0 mm 3 m/s 758 mmHg 20%
    15:00 +33°C° 0 mm 3 m/s 757 mmHg 21%
    16:00 +33°C° 0 mm 3 m/s 756 mmHg 21%
    17:00 +33°C° 0 mm 3 m/s 755 mmHg 22%
    18:00 +30°C° 0 mm 3 m/s 755 mmHg 28%
    19:00 +27°C° 0 mm 3 m/s 755 mmHg 33%
    20:00 +25°C° 0 mm 3 m/s 755 mmHg 39%
    21:00 +24°C° 0 mm 3 m/s 756 mmHg 43%
    22:00 +22°C° 0 mm 3 m/s 756 mmHg 46%
    23:00 +21°C° 0 mm 3 m/s 756 mmHg 50%

    24 Février, Lundi

    Heure Température Précipitation Vent Pression Humidité
    00:00 +21°C° 0 mm 3 m/s 755 mmHg 53%
    01:00 +20°C° 0 mm 3 m/s 755 mmHg 56%
    02:00 +19°C° 0 mm 2 m/s 755 mmHg 60%
    03:00 +19°C° 0 mm 2 m/s 754 mmHg 62%
    04:00 +18°C° 0 mm 2 m/s 754 mmHg 64%
    05:00 +18°C° 0 mm 2 m/s 754 mmHg 66%
    06:00 +20°C° 0 mm 2 m/s 755 mmHg 59%
    07:00 +23°C° 0 mm 2 m/s 755 mmHg 53%
    08:00 +25°C° 0 mm 2 m/s 755 mmHg 46%
    09:00 +27°C° 0 mm 2 m/s 755 mmHg 39%
    10:00 +30°C° 0 mm 2 m/s 754 mmHg 32%
    11:00 +34°C° 0 mm 3 m/s 754 mmHg 24%
    12:00 +35°C° 0 mm 2 m/s 753 mmHg 22%
    13:00 +36°C° 0 mm 2 m/s 752 mmHg 20%
    14:00 +38°C° 0 mm 2 m/s 751 mmHg 17%
    15:00 +38°C° 0 mm 2 m/s 751 mmHg 17%
    16:00 +37°C° 0 mm 1 m/s 750 mmHg 17%
    17:00 +37°C° 0 mm 1 m/s 749 mmHg 16%
    18:00 +35°C° 0 mm 2 m/s 750 mmHg 21%
    19:00 +31°C° 0 mm 3 m/s 750 mmHg 25%
    20:00 +28°C° 0 mm 3 m/s 750 mmHg 29%
    21:00 +27°C° 0 mm 3 m/s 750 mmHg 33%
    22:00 +26°C° 0 mm 3 m/s 751 mmHg 37%
    23:00 +25°C° 0 mm 3 m/s 751 mmHg 40%
    Voir plus